RH
58 59 57 58 58 58 59 59 58 60 56 58 63 61 62 63 62 62 62 63 63 64 64 64 64 64 58 67 55 30 52 49 51 63 62 61 64 58 62 54 56 70 56 55 55 55 52
57 56 57 58 61 57 57 58 60 59 60 63 63 65 64 62 61 62 62 62 64 64 61 63 62 64 66 83 27 30 37 40 49 67 63 60 56 49 56 52 60 52 60 55 53 56 55
58 55 56 57 57 60 64 66 66 65 64 61 64 62 61 60 62 62 61 62 62 56 55 57 58 58 75 61 29 34 42 43 35 62 68 57 53 60 56 59 48 52 61 55 57 62 63
55 56 58 63 65 66 64 64 62 62 63 63 64 64 61 63 63 62 62 61 60 61 60 60 72 62 85 41 34 38 37 50 47 44 65 54 58 62 57 43 58 63 64 85 52 52 57
54 58 63 63 64 62 62 64 66 65 64 67 67 67 67 65 63 62 62 57 63 62 67 62 72 69 65 44 56 41 40 44 48 50 52 62 71 70 62 76 74 66 65 75 58 50 56
61 62 65 63 62 64 69 62 58 63 59 58 59 65 68 67 65 64 62 59 60 61 44 54 55 82 57 40 50 52 46 48 52 53 59 75 95 90 87 87 88 78 85 57 50 45 53
60 61 61 62 63 57 61 62 62 62 60 56 58 65 65 66 64 64 56 43 42 38 49 52 53 61 53 42 40 47 55 59 60 62 70 68 93 90 65 71 64 51 48 54 46 43 53
62 62 63 62 58 57 59 56 60 63 56 58 61 64 66 64 64 64 47 53 60 68 90 51 46 46 37 36 50 41 58 63 75 81 59 73 85 55 50 54 74 71 68 59 44 54 70
60 61 56 57 69 66 60 60 63 59 56 60 59 60 63 65 64 54 56 56 52 56 77 47 38 47 53 56 65 53 36 59 67 69 57 66 53 45 43 62 78 76 88 79 64 57 72
58 58 60 62 64 62 60 63 62 57 60 60 60 61 63 66 55 60 50 45 49 57 77 37 59 91 34 39 94 47 52 51 67 72 58 60 39 42 50 52 69 95 65 62 68 81 94
58 59 58 60 63 62 65 64 60 59 61 60 62 63 64 64 66 61 47 48 48 69 81 44 56 58 24 40 53 54 53 80 92 86 82 60 50 51 56 54 49 62 66 70 65 92 99
54 66 64 66 65 65 60 61 60 61 63 62 63 64 64 55 58 56 52 52 70 88 73 53 37 31 28 37 40 58 57 67 78 95 82 84 36 46 43 40 47 44 57 64 71 79 95
61 56 57 59 57 58 55 57 57 56 59 62 65 64 61 52 55 55 54 48 66 79 27 49 40 31 31 42 32 42 41 84 94 96 89 84 94 47 47 56 56 60 90 97 96 95 70
54 52 55 54 51 54 55 58 58 59 59 64 65 65 61 56 54 53 49 42 53 20 34 37 34 34 31 41 43 40 39 72 81 89 83 81 85 96 52 47 66 92 91 71 72 58 48
55 53 53 51 55 55 58 57 57 58 60 64 69 53 60 54 56 53 53 68 33 48 57 53 41 31 32 42 44 45 56 79 91 84 91 83 67 72 69 49 40 59 91 58 87 64 64
53 53 52 54 55 54 54 56 57 56 62 66 63 63 59 57 58 62 66 52 43 72 46 44 60 40 58 52 52 54 74 81 74 63 78 84 85 50 64 57 51 52 43 84 95 92 65
52 52 52 53 53 56 55 55 56 55 64 66 60 62 54 57 63 63 73 56 70 59 55 53 51 61 65 56 49 54 69 51 68 53 56 94 93 68 81 76 65 82 98 78 56 44 53
54 55 57 57 59 60 58 52 54 56 67 66 74 63 57 54 55 71 62 60 60 60 44 52 58 76 65 56 60 50 55 57 57 60 76 89 95 88 88 82 48 50 56 60 64 72 47
56 56 58 58 60 60 58 54 56 56 65 85 89 64 57 63 72 56 54 57 55 54 47 49 57 52 53 57 67 44 45 39 45 53 92 74 88 80 68 78 78 93 96 71 54 68 66
54 54 54 55 54 55 56 56 53 58 65 84 90 86 46 57 74 90 80 56 59 49 53 52 56 47 48 48 42 58 47 41 47 45 53 51 66 90 90 92 86 87 77 87 94 97 66
53 52 52 51 53 53 50 54 52 55 66 84 86 74 75 74 57 70 77 88 69 73 53 60 53 49 70 81 52 42 40 43 41 42 43 65 77 49 44 36 40 69 65 56 76 69 81
52 52 52 52 52 51 56 64 59 58 66 83 90 89 86 77 78 77 68 80 69 66 65 56 62 57 62 83 66 88 58 53 51 41 47 55 72 64 73 43 43 39 35 39 39 38 61
55 56 56 57 56 57 58 60 58 58 69 89 81 86 100 70 62 76 58 66 93 83 58 52 56 65 64 48 50 53 55 54 55 61 58 68 65 66 54 36 40 67 75 40 44 47 49
56 55 54 55 55 55 54 56 56 57 63 89 85 93 98 78 61 58 66 70 74 70 84 63 52 62 48 44 49 46 47 48 47 46 47 63 64 65 68 57 68 36 56 39 48 53 48
57 56 56 56 55 59 61 59 58 54 57 87 88 94 98 88 58 58 59 70 60 64 68 62 49 47 46 58 64 58 35 38 35 39 53 53 57 69 74 59 37 27 44 53 56 75 52
60 54 54 56 60 55 54 57 57 53 56 78 85 90 100 97 50 53 58 71 82 80 74 62 50 49 58 68 66 77 57 51 54 52 60 47 55 74 56 72 46 58 58 49 50 89 60
56 56 58 57 54 54 54 54 54 55 57 74 83 85 98 98 62 64 82 67 66 83 86 76 78 62 59 68 68 62 48 54 66 55 72 74 84 78 59 73 46 66 52 48 70 84 68
58 58 57 56 56 56 56 55 56 59 60 72 81 87 97 98 69 60 57 74 68 74 84 70 82 82 85 86 76 59 66 64 68 41 68 88 67 64 53 67 65 57 47 67 63 52 50
60 59 58 58 58 57 56 57 59 59 62 64 86 81 87 100 89 70 61 55 61 66 82 87 76 76 72 82 84 83 68 61 67 76 58 93 93 83 65 43 52 46 56 48 43 48 52
Wind_Speed
14 14 14 14 15 15 16 16 17 17 18 19 19 20 21 22 24 25 26 26 26 28 28 26 21 17 10 9 18 5 4 7 15 18 21 20 20 17 14 11 14 21 13 12 15 15 16
12 13 14 14 15 15 16 17 17 18 18 19 18 20 21 23 25 26 28 28 30 29 26 21 18 13 11 19 14 12 13 5 11 18 22 22 14 16 7 15 19 9 19 18 12 14 13
12 12 13 14 15 16 17 18 18 19 20 21 20 21 22 24 25 27 29 32 30 29 28 27 22 11 17 30 5 6 10 15 17 19 24 25 19 16 10 10 19 18 19 16 18 14 13
10 11 13 15 16 16 17 18 18 18 18 19 21 20 22 24 26 27 31 33 33 32 26 16 10 11 14 9 16 22 21 9 8 11 16 20 20 19 18 9 7 13 19 16 9 20 15
11 13 13 14 15 16 16 16 17 19 20 23 24 23 22 25 27 28 31 32 35 23 13 6 5 8 13 5 10 14 17 23 15 11 9 13 20 19 16 20 15 19 18 18 15 10 10
12 13 14 15 16 17 17 19 20 20 20 23 24 24 24 24 26 29 29 34 22 6 6 3 2 4 8 4 5 4 5 18 16 11 13 16 11 13 16 19 28 15 16 18 21 13 20
12 13 13 16 18 17 19 18 19 19 21 24 25 25 24 24 25 28 18 9 8 2 8 10 12 19 21 11 10 7 3 11 17 16 23 23 16 20 47 26 19 21 22 25 19 15 16
13 13 14 14 15 15 16 20 20 20 22 23 24 24 24 25 27 21 12 7 9 7 16 17 22 26 25 22 24 20 5 13 16 25 24 17 30 44 21 23 24 21 21 26 15 10 11
13 14 16 15 16 15 19 19 19 20 22 22 23 24 24 23 23 6 13 4 4 10 9 15 7 8 4 13 14 14 23 23 20 24 26 31 38 26 25 20 26 25 26 20 20 13 16
13 15 15 17 17 17 18 18 19 21 21 22 23 25 24 24 8 9 8 2 7 6 7 8 3 6 13 17 5 21 13 27 24 24 26 29 33 18 31 29 27 23 24 24 20 16 11
14 15 15 17 17 17 18 19 20 21 21 21 24 25 23 19 10 7 7 11 10 4 9 8 6 5 21 8 16 4 21 8 25 22 12 26 20 28 23 34 24 23 15 23 18 17 6
13 15 17 18 17 17 18 20 20 20 21 23 24 26 25 11 6 7 11 12 3 5 8 9 10 23 29 10 11 10 8 16 9 20 24 19 18 20 35 24 23 25 15 22 18 14 12
13 15 14 15 16 17 19 19 20 21 21 21 24 26 20 6 5 11 10 6 5 6 15 12 23 29 22 17 19 11 17 20 15 11 17 19 23 23 17 25 21 25 15 8 10 9 12
12 15 15 15 16 17 18 20 21 22 22 22 25 26 9 4 5 8 6 4 5 9 13 16 18 22 16 21 15 17 12 7 17 15 11 8 10 20 14 22 18 15 10 8 13 13 12
13 14 15 15 16 18 19 20 21 20 21 22 21 6 4 3 5 5 5 4 6 9 8 11 19 13 16 16 12 15 10 9 7 17 11 9 8 4 17 16 21 18 17 19 2 2 4
12 12 14 15 16 17 19 20 21 22 22 20 8 6 4 6 6 2 3 5 5 5 10 13 9 9 16 16 15 17 13 10 11 12 9 5 12 12 14 21 20 17 10 11 9 7 14
12 13 14 15 16 16 17 18 20 22 21 15 4 6 4 7 3 2 2 4 5 7 9 5 12 10 9 13 15 12 10 6 14 16 12 11 6 13 12 14 17 11 6 8 8 13 11
12 13 14 15 16 17 17 18 20 21 21 7 4 6 5 6 5 1 4 4 6 10 8 6 6 6 8 13 10 8 10 6 11 16 10 6 5 10 10 23 10 19 13 15 10 12 14
14 15 16 15 14 15 16 17 19 20 18 4 6 5 1 3 4 7 6 10 10 11 9 6 8 6 12 10 8 10 7 13 13 16 11 10 8 10 10 7 12 7 8 11 14 3 16
14 16 16 15 15 16 17 17 18 19 16 1 3 4 3 1 1 3 10 13 6 7 13 7 9 11 10 12 9 11 16 7 16 15 10 8 3 5 6 11 12 12 18 15 10 8 12
13 14 15 15 16 16 17 17 16 16 12 1 0 3 3 6 10 13 15 8 15 7 4 5 6 8 9 7 16 14 17 17 9 9 7 6 6 6 11 19 18 17 18 17 10 10 12
13 14 15 15 15 16 17 15 15 16 9 1 3 4 2 11 9 11 13 4 12 11 5 9 11 16 13 12 17 19 19 15 8 7 10 8 6 12 9 11 12 17 17 17 16 14 14
14 15 16 17 18 16 15 16 16 17 5 2 1 4 4 7 7 10 9 13 6 10 7 6 12 16 16 15 12 15 15 18 17 18 18 10 5 6 7 10 17 6 1 12 7 9 12
15 16 17 18 18 18 19 19 17 15 12 2 3 2 4 9 8 11 16 18 17 15 13 17 15 13 7 12 14 15 17 19 18 17 12 10 9 6 8 10 3 5 8 10 9 13 9
16 16 18 19 19 18 19 19 19 17 15 3 2 3 3 6 10 15 9 12 16 11 15 13 14 6 9 10 8 8 9 5 4 4 4 13 11 5 4 5 7 3 12 13 11 7 16
16 18 19 19 19 20 20 17 18 21 18 5 3 5 3 5 7 8 14 10 11 11 9 6 5 5 4 4 4 4 7 7 5 9 1 9 12 7 5 5 4 9 16 18 9 3 16
17 19 20 20 20 20 19 21 21 22 20 10 5 8 4 6 11 8 7 9 3 4 7 6 4 4 2 3 4 4 5 3 4 8 6 2 5 8 9 4 7 14 19 17 1 6 23
18 19 20 20 20 20 21 22 24 23 22 13 8 8 5 4 10 9 9 8 7 5 9 3 5 2 2 4 3 2 3 3 5 10 9 3 5 4 4 4 6 18 8 9 14 18 18
19 20 20 20 20 21 22 24 25 25 24 18 7 2 7 5 5 4 9 15 16 15 8 4 5 3 3 4 3 2 4 5 6 4 5 1 4 3 5 3 7 12 7 11 15 16 18
Wind_Direction
46 40 31 29 20 18 14 8 3 358 356 354 357 350 348 343 340 334 330 326 322 318 311 306 298 294 293 239 248 220 284 15 182 176 189 188 189 200 203 215 204 227 235 237 245 252 248
43 33 27 22 19 10 7 6 1 355 351 351 351 349 344 338 338 333 329 324 321 314 310 303 300 275 252 252 269 252 261 243 215 194 205 201 209 211 254 226 214 204 233 250 249 250 248
37 27 21 18 11 8 5 3 356 357 351 346 343 342 342 341 338 336 329 325 318 307 303 296 282 253 238 238 219 271 238 239 222 212 210 213 211 196 206 236 233 238 250 244 241 243 252
26 27 16 15 9 5 360 355 349 349 343 338 336 338 339 335 335 334 329 321 310 308 302 284 265 222 249 251 259 248 242 238 213 228 235 213 217 225 227 229 214 221 237 245 240 225 226
16 22 15 5 1 356 350 345 345 344 347 351 349 344 339 335 334 334 326 322 310 313 296 292 179 200 262 301 240 257 237 229 236 227 226 227 217 218 220 228 240 226 233 217 238 206 198
16 11 4 360 359 346 350 357 345 348 352 351 342 341 338 335 333 333 330 317 314 312 354 109 17 227 248 281 261 270 244 221 216 230 219 217 215 215 220 209 220 212 219 234 242 210 222
7 4 359 3 352 358 353 352 343 348 355 347 342 341 337 335 335 332 339 327 4 283 9 288 291 261 298 296 275 240 209 189 203 212 211 203 210 216 222 213 232 240 229 241 238 225 233
1 354 360 356 348 349 348 355 346 351 353 348 344 340 336 336 333 338 344 10 40 302 300 270 260 271 272 287 281 266 246 202 199 214 208 203 215 224 218 216 217 230 237 241 248 204 230
0 358 352 350 350 352 355 348 347 351 350 347 337 334 336 336 328 335 335 334 15 350 283 311 270 264 10 332 264 278 235 239 224 231 214 210 220 229 225 216 217 215 221 224 226 211 225
357 357 348 352 357 354 349 346 351 350 346 344 338 334 337 340 310 336 311 30 329 309 280 276 13 46 329 326 255 305 268 239 239 243 227 229 236 227 216 220 207 220 212 225 236 227 238
355 349 356 353 352 352 350 352 352 345 344 342 333 332 336 336 299 296 307 323 316 213 289 32 14 257 332 337 285 328 332 245 230 230 221 222 224 228 227 221 211 230 210 224 224 221 223
356 360 3 359 1 359 352 353 348 345 342 343 332 326 331 322 290 287 312 316 200 233 260 359 337 331 336 354 354 301 334 305 249 239 240 250 236 226 228 228 218 224 223 221 231 232 239
358 0 1 357 354 355 352 348 343 343 345 341 329 324 327 321 301 327 317 297 273 262 5 358 337 334 327 330 331 344 344 34 32 307 215 223 230 232 224 220 217 207 204 185 207 215 241
4 3 359 356 354 354 350 352 349 347 351 346 327 323 326 316 329 326 314 295 287 332 344 329 328 317 330 356 328 336 356 20 33 12 303 289 207 204 206 209 199 206 197 207 217 227 226
7 356 352 356 352 355 353 348 346 347 346 345 329 338 319 14 334 317 309 293 316 351 323 324 318 327 341 345 332 351 14 33 54 33 1 330 308 134 195 213 205 199 217 223 343 220 262
359 352 351 354 360 356 353 352 350 349 355 348 329 321 308 348 323 275 278 281 312 326 323 319 311 322 329 345 344 351 1 36 7 15 342 296 289 259 208 209 219 204 188 192 206 213 222
352 349 351 349 357 351 351 350 346 350 2 348 315 321 63 332 268 263 290 294 296 279 306 306 311 303 309 346 332 345 14 357 14 337 330 288 265 320 268 198 189 198 194 195 224 229 239
344 341 341 343 345 348 341 349 349 353 2 2 343 312 31 329 307 333 295 300 307 297 303 270 283 276 292 335 318 327 335 346 357 330 325 296 289 303 291 303 265 203 195 197 206 199 228
353 352 353 350 342 343 338 349 347 349 6 332 327 292 28 300 324 334 326 285 299 291 302 300 296 285 308 318 316 298 326 333 345 333 354 336 2 320 348 10 33 3 338 254 221 276 212
3 2 355 350 345 346 347 349 348 1 4 346 337 310 312 339 54 292 319 305 289 295 289 284 276 298 316 310 301 300 309 339 328 319 341 350 333 316 326 313 295 300 305 308 317 203 195
5 358 352 346 342 346 341 349 345 2 9 343 286 313 340 300 314 308 299 271 298 297 248 287 282 284 323 290 309 298 317 323 313 307 342 9 278 287 285 277 277 274 279 286 285 283 240
357 348 340 336 332 330 347 331 341 347 19 282 293 307 249 284 299 296 300 275 284 294 266 294 287 308 303 292 297 298 308 304 307 303 320 331 284 313 269 269 261 287 296 291 273 263 261
345 339 334 332 333 335 328 333 330 337 28 297 272 271 265 277 301 299 308 313 290 305 284 270 302 303 304 311 309 295 286 278 266 275 286 277 271 316 289 320 313 311 45 326 293 255 243
341 337 332 330 328 331 337 333 329 330 344 262 275 260 258 281 290 290 293 298 291 296 287 292 297 291 294 312 298 278 270 268 270 265 248 241 240 249 277 301 275 63 241 285 330 31 339
333 333 327 331 332 336 331 328 329 324 325 252 233 230 265 274 295 290 278 301 302 281 288 281 296 280 317 300 294 314 310 295 358 49 2 219 222 234 246 261 325 296 8 10 355 53 33
334 336 332 328 333 336 334 331 326 321 325 307 246 205 233 276 274 253 297 292 291 302 292 249 280 287 274 276 296 293 321 320 336 334 297 358 212 213 206 253 215 53 337 323 277 204 15
333 333 330 335 333 330 333 331 327 322 326 311 274 198 218 245 267 242 228 285 254 257 268 297 311 289 254 273 284 297 300 338 299 316 340 352 152 217 244 309 286 1 333 311 294 5 325
331 331 333 332 330 329 331 328 321 318 315 314 292 199 223 244 269 242 260 244 244 247 275 314 290 152 210 236 266 298 284 349 291 305 291 247 175 197 236 253 266 9 347 19 320 315 308
329 330 331 330 331 330 328 324 323 322 327 325 295 191 225 258 292 343 261 249 257 262 267 220 252 199 254 243 236 277 260 295 311 296 328 308 342 332 255 306 345 5 354 334 321 311 310